Home   Weather   East Fairfield   Past weeks
Flag for USA

Past Weather in East Fairfield, Ohio, USA — Yesterday and Last 2 Weeks

Now
47 °F

Light rain. Fog.


Feels Like: 42 °F
Forecast: 54 / 45 °F
Wind: 12 mph from South

Location: Youngstown-Warren Regional Airport

Current Time: Dec 9, 2019 at 1:31:52 pm

Latest Report: Dec 9, 2019 at 11:51 am


Visibility: 3 mi

Pressure: 29.68 "Hg

Humidity: 90%

Dew Point: 44 °F

Location of East FairfieldLocation

Past Weather in East Fairfield — Graph

°F

East Fairfield Temperature Yesterday

Maximum temperature yesterday: 50 °F (at 10:51 pm)
Minimum temperature yesterday: 28 °F (at 5:51 am)
Average temperature yesterday: 40 °F

High & Low Weather Summary for the Past Weeks

 TemperatureHumidityPressure
High59 °F (Nov 26, 1:51 pm)93% (Dec 1, 9:51 am)30.46 "Hg (Dec 1, 9:51 am)
Low23 °F (Dec 7, 6:51 am)48% (Nov 26, 1:51 pm)29.36 "Hg (Dec 1, 8:37 am)
Average38 °F75%29.90 "Hg
* Reported Nov 24 11:51 am — Dec 9 11:51 am, East Fairfield. Weather by CustomWeather, © 2019

Note: Actual official high and low records may vary slightly from our data, if they occured in-between our weather recording intervals... More about our weather records

East Fairfield Weather History for the Previous 24 Hours

Scroll right to see more
 ConditionsComfort  
Time TempWeatherWind HumidityBarometerVisibility
11:51 am
Mon, Dec 9
47 °FLight rain. Fog.12 mph90%29.68 "Hg3 mi
11:39 am47 °FLight rain. Fog.13 mph90%29.69 "Hg3 mi
10:51 am47 °FLight rain. Fog.10 mph86%29.76 "Hg2 mi
10:29 am47 °FLight rain. Fog.13 mph86%29.77 "Hg2 mi
9:51 am46 °FLight rain. Mostly cloudy.15 mph86%29.80 "Hg3 mi
8:51 am46 °FLight rain. Mostly cloudy.12 mph86%29.81 "Hg8 mi
7:51 am45 °FLight rain. Fog.10 mph86%29.85 "Hg6 mi
7:38 am45 °FLight rain. Mostly cloudy.10 mph86%29.84 "Hg9 mi
6:51 am47 °FLight rain. Overcast.9 mph77%29.88 "Hg9 mi
5:51 am48 °FMostly cloudy.10 mph61%29.89 "Hg10 mi
4:51 am49 °FOvercast.8 mph55%29.91 "Hg10 mi
3:51 am49 °FOvercast.9 mph50%29.94 "Hg10 mi
2:51 am49 °FOvercast.9 mph52%29.96 "Hg10 mi
1:51 am49 °FMostly cloudy.9 mph52%29.99 "Hg10 mi
12:51 am49 °FPassing clouds.8 mph55%30.01 "Hg10 mi
11:51 pm
Sun, Dec 8
48 °FMostly cloudy.10 mph56%30.02 "Hg10 mi
10:51 pm50 °FMostly cloudy.10 mph52%30.03 "Hg10 mi
9:51 pm49 °FMostly cloudy.9 mph57%30.04 "Hg10 mi
8:51 pm49 °FPartly cloudy.12 mph57%30.05 "Hg10 mi
7:51 pm49 °FOvercast.13 mph57%30.05 "Hg10 mi
6:51 pm48 °FOvercast.14 mph59%30.06 "Hg10 mi
5:51 pm47 °FMostly cloudy.10 mph64%30.08 "Hg10 mi
4:51 pm47 °FOvercast.9 mph64%30.09 "Hg10 mi
3:51 pm48 °FOvercast.9 mph61%30.09 "Hg10 mi
2:51 pm48 °FOvercast.12 mph61%30.10 "Hg10 mi
1:51 pm48 °FBroken clouds.10 mph61%30.10 "Hg10 mi
Weather by CustomWeather, © 2019

See weather overview

Advertising